Location: Oshawa
(43.9000°N, 78.8670°W)
Time: 13:35:06
(UTC-04:00)

Altair - Visible Passes

Search period start: 19 April 2014 00:00
Search period end: 29 April 2014 00:00
Orbit: 1501 x 1683 km, 47.2° (Epoch: 16 April)

Date Brightness Start Highest point End Pass type
(mag) Time Alt. Az. Time Alt. Az. Time Alt. Az.
19 Apr 9.6 05:37:26 10° SSE 05:41:59 15° SE 05:46:28 10° E visible
20 Apr 9.6 05:13:22 10° SSE 05:17:01 13° ESE 05:20:37 10° E visible
21 Apr 9.6 04:49:46 10° SE 04:52:03 11° ESE 04:54:18 10° ESE visible
24 Apr 8.6 05:31:25 10° SSW 05:39:47 36° SE 05:47:54 10° ENE visible
25 Apr 8.7 05:06:35 10° SSW 05:14:45 33° SE 05:22:41 10° ENE visible
26 Apr 8.7 04:41:46 10° S 04:49:43 30° SE 04:57:26 10° ENE visible
27 Apr 8.8 04:17:18 11° S 04:24:42 28° SE 04:32:10 10° ENE visible
28 Apr 8.8 03:53:38 14° S 03:59:41 25° SE 04:06:52 10° E visible
